Temp
18 18 17 17 17 17 17 16 16 15 16 15 15 15 15 15 15 15 15 15 15 15 15 15 15 15 15 14 14 14 14 14 14 14 14 14 14 14 14 14 14 14
18 18 17 17 17 17 17 16 16 16 16 15 15 15 15 15 15 15 15 15 15 15 15 15 15 15 15 15 14 14 14 14 14 14 14 14 14 14 14 13 13 13
18 18 17 17 17 17 17 16 16 16 16 15 15 15 15 15 15 15 15 15 15 15 15 15 15 15 15 15 15 14 14 14 14 14 14 14 14 14 14 13 13 13
18 17 17 17 17 17 17 16 16 16 16 15 15 15 15 15 15 15 15 15 15 15 15 15 15 15 15 15 15 14 14 14 14 14 14 14 14 14 13 13 13 13
17 17 17 17 17 17 17 16 16 16 16 16 15 15 15 15 15 15 15 15 15 15 15 15 15 15 15 14 14 14 14 14 14 14 14 14 13 13 13 13 13 13
17 17 17 17 16 17 17 17 16 16 16 16 16 16 15 15 15 15 15 15 15 15 15 15 15 15 15 14 14 14 14 14 14 14 14 14 14 14 13 13 13 13
16 16 17 17 16 16 16 17 17 16 16 16 16 16 16 16 16 16 16 15 15 15 15 15 15 15 15 15 14 14 14 14 14 14 14 14 14 14 14 14 13 13
16 16 16 16 16 16 16 17 17 16 16 16 16 16 16 16 16 16 16 16 16 16 15 15 15 15 15 15 15 15 14 14 14 14 14 14 14 14 14 14 14 14
16 16 16 16 15 16 16 17 17 17 16 16 16 16 16 16 16 16 16 16 16 16 16 16 15 15 15 15 15 15 14 14 14 14 14 14 14 14 14 14 14 13
16 16 16 16 15 16 16 17 17 17 17 16 16 16 16 16 16 16 16 16 16 16 16 16 15 15 15 15 15 15 14 14 14 14 14 14 14 13 13 13 13 13
16 16 16 15 15 16 16 17 17 16 16 16 16 16 16 16 16 16 16 16 16 16 16 15 15 15 15 15 15 15 15 15 14 14 14 14 14 13 13 13 13 13
16 16 16 16 16 16 16 17 16 16 16 16 16 16 16 16 16 16 16 15 15 16 15 15 15 15 15 15 15 15 15 15 14 14 14 14 14 14 14 14 13 13
16 16 16 16 16 15 15 16 16 16 16 16 16 16 16 16 16 16 16 15 15 15 15 15 15 15 15 15 15 14 14 14 14 14 14 14 14 14 14 13 13 13
15 15 15 15 15 15 15 15 15 15 15 15 15 15 15 15 15 15 15 15 15 15 15 15 15 14 14 14 14 14 14 14 14 14 14 14 14 14 14 13 13 13
15 15 14 14 14 14 14 14 15 15 15 15 15 15 15 15 15 15 15 15 15 15 14 14 14 14 14 14 14 14 13 13 13 14 14 13 13 13 13 13 13 12
14 14 14 14 14 14 14 14 15 15 15 15 15 15 15 15 14 15 15 15 15 14 14 13 13 13 13 13 13 13 13 12 13 13 13 13 13 13 13 13 13 13
14 14 14 14 14 14 15 15 15 15 15 15 14 14 14 14 14 14 14 14 14 14 14 14 13 13 13 13 13 13 13 13 13 12 12 12 12 12 12 12 12 12
14 14 14 14 14 14 14 15 15 15 15 14 14 14 14 14 14 14 14 14 14 14 14 14 14 13 13 13 13 14 14 14 13 13 12 12 11 11 11 11 11 12
14 14 14 14 13 14 14 14 15 15 15 14 14 14 14 14 14 14 14 14 14 14 14 14 14 14 14 14 13 14 14 13 13 13 13 12 12 11 11 11 11 12
14 14 14 14 14 14 14 14 15 14 14 14 14 14 14 14 14 14 14 14 14 14 14 14 14 13 13 13 13 13 13 13 13 13 13 13 12 12 12 12 12 11
14 14 15 15 15 15 15 15 15 14 15 15 14 14 14 14 14 14 14 14 14 14 14 13 13 13 13 13 13 13 13 13 13 13 13 13 12 12 12 12 11 11
14 15 15 15 15 15 15 15 15 14 14 14 14 14 14 14 14 14 14 14 14 14 13 13 13 13 13 13 12 12 13 13 12 12 12 12 12 12 12 11 11 11
14 14 14 14 14 14 14 14 14 14 14 14 14 14 13 13 13 13 13 13 13 13 13 13 13 13 12 12 12 12 12 12 12 12 12 12 12 11 11 11 11 10
14 14 14 14 14 14 14 14 14 14 13 13 13 13 13 13 13 13 13 13 13 13 13 13 13 12 12 12 12 12 12 12 12 12 11 11 11 11 10 10 10 10
13 13 13 13 14 14 14 14 13 13 13 13 13 13 13 13 13 13 13 12 12 12 12 12 12 12 12 12 11 11 12 12 11 11 11 11 10 10 10 9 9 9
13 13 13 13 13 13 13 13 13 13 13 13 13 13 13 12 12 12 12 12 12 12 12 12 11 11 11 11 11 11 11 11 11 11 11 11 10 9 9 9 8 8
Height
820 822 823 825 826 827 828 830 832 834 836 838 840 841 842 842 843 843 844 844 844 844 844 844 843 844 844 844 844 844 844 844 844 845 845 845 846 846 847 848 848 848
819 821 823 824 825 827 828 829 831 834 836 838 840 841 842 843 844 844 844 844 845 845 845 845 845 845 845 845 845 845 846 846 846 846 846 847 847 848 848 849 849 849
818 820 822 823 825 826 828 830 831 833 836 837 839 841 842 843 844 845 845 845 845 845 845 845 845 845 846 846 846 846 846 847 847 848 848 848 849 849 849 850 850 851
818 820 821 823 825 827 828 829 831 833 835 837 839 841 842 843 844 845 845 846 845 846 846 846 846 846 846 846 846 846 847 847 848 848 849 849 850 851 851 851 852 852
817 819 821 823 825 826 828 829 831 833 835 837 839 840 842 843 844 845 845 846 846 846 846 846 846 846 846 846 846 847 848 848 849 849 850 850 851 852 852 853 853 853
817 819 820 822 824 826 827 828 831 832 834 837 838 840 841 842 843 844 844 845 846 846 846 846 846 846 846 846 846 847 848 849 850 850 850 851 851 852 853 854 855 854
816 818 819 821 823 825 826 828 830 832 834 836 837 838 840 841 842 843 844 844 845 845 845 846 846 846 846 846 846 847 848 849 850 851 851 852 852 853 853 854 855 855
815 817 818 820 822 824 825 827 829 831 832 834 836 837 839 840 841 842 842 843 843 844 844 845 845 845 845 846 846 847 848 849 850 851 852 853 853 853 854 854 855 855
815 816 818 819 821 822 824 825 827 830 831 833 835 836 838 839 840 841 841 842 842 842 843 843 844 844 845 845 846 847 848 848 849 850 851 852 853 854 854 854 855 855
814 816 817 818 820 821 823 825 826 828 830 832 834 835 837 838 839 840 840 840 841 841 842 842 842 843 843 844 845 846 847 847 848 849 850 851 852 852 853 854 855 855
814 815 816 818 819 820 822 823 825 827 829 831 832 834 836 837 838 838 839 839 840 840 841 841 841 842 842 843 843 844 845 845 846 847 848 849 849 850 851 852 853 854
813 815 816 817 818 819 821 822 824 826 828 829 831 832 834 835 836 837 838 838 839 840 840 840 840 840 840 841 842 842 843 843 844 846 846 846 847 848 849 849 850 851
812 814 815 816 817 818 820 822 824 825 827 828 830 831 832 833 834 835 836 837 838 839 839 839 839 839 839 840 840 841 841 842 843 844 845 845 845 846 846 847 848 849
812 813 815 816 817 819 821 822 824 825 826 827 828 830 831 832 833 834 835 836 837 837 838 838 838 838 838 838 839 839 839 840 841 842 843 843 843 844 844 845 846 846
812 814 815 816 817 819 821 822 823 824 825 826 827 829 830 831 832 833 833 835 835 836 836 836 836 837 837 836 837 837 838 838 839 840 841 842 842 842 843 843 843 844
813 814 815 817 818 820 821 822 822 823 824 825 826 828 829 830 831 831 832 833 834 834 835 835 835 835 835 835 835 836 837 837 838 838 839 840 840 841 841 841 841 842
815 816 817 818 819 820 820 821 821 822 823 824 826 827 828 829 829 830 831 832 832 833 833 834 834 834 834 835 835 835 836 836 837 837 838 838 839 840 840 841 840 840
816 817 818 819 820 821 821 821 821 821 822 823 825 826 827 828 829 829 830 831 831 832 832 832 833 833 834 834 834 835 835 836 836 836 837 838 839 839 839 839 839 839
816 817 818 819 821 822 822 822 821 822 823 823 824 826 827 827 828 829 830 830 831 831 832 832 832 833 833 833 834 834 835 835 835 836 836 837 838 838 838 838 838 838
817 818 819 820 820 821 821 822 822 823 823 824 825 826 827 828 829 829 830 830 831 831 831 831 832 832 832 833 833 833 834 834 835 835 836 837 837 837 837 837 837 837
818 819 820 820 821 821 822 822 823 824 824 825 826 827 828 829 829 829 830 830 830 831 830 831 831 831 831 832 832 833 833 834 835 835 836 836 836 837 837 837 836 836
820 820 821 821 822 822 823 823 824 825 825 826 827 827 828 829 829 829 829 829 830 830 830 830 830 830 830 831 831 832 833 834 835 835 835 836 836 837 837 837 836 836
822 822 822 823 823 824 824 825 825 825 826 826 826 827 828 828 829 829 829 829 830 830 830 830 830 830 830 831 831 832 833 834 834 835 835 836 836 837 837 837 837 837
823 824 824 824 825 825 825 826 826 826 826 826 826 826 827 828 828 829 829 829 829 830 830 830 830 830 830 831 831 832 833 833 834 834 835 836 836 837 837 838 838 838
822 822 823 824 825 825 825 826 826 825 825 825 825 826 826 827 827 828 828 829 829 829 829 830 830 830 830 831 831 832 832 833 833 834 835 836 837 838 838 839 839 840
820 820 821 821 822 823 823 824 824 824 824 824 824 825 826 826 827 827 828 828 828 829 829 829 830 830 830 831 831 831 832 833 833 834 835 836 837 838 839 840 840 841
Wind_Speed
11 10 10 10 10 10 10 10 9 8 9 11 12 11 10 9 9 9 9 9 10 11 12 12 12 11 9 8 8 9 10 10 11 10 10 10 10 10 10 10 9 11
11 11 11 11 10 10 9 9 9 9 10 11 11 10 10 9 8 8 8 8 8 9 10 11 11 11 11 9 9 9 10 10 11 11 10 10 10 9 9 10 10 11
11 12 13 13 11 10 11 10 10 10 10 11 11 10 10 9 8 8 7 7 7 7 8 8 9 10 11 10 10 10 10 10 10 10 10 10 10 10 10 10 10 11
12 14 14 13 12 11 12 12 12 11 11 11 11 11 10 9 8 7 6 5 5 5 6 6 7 7 8 9 10 10 10 9 9 9 9 10 10 10 10 10 11 11
13 15 14 14 14 13 13 13 13 12 11 11 11 10 10 9 8 7 6 5 4 4 4 4 5 5 6 7 7 8 8 8 8 7 8 9 9 9 9 9 10 10
13 15 14 15 16 15 14 13 13 13 11 11 11 10 9 9 9 8 7 5 4 3 3 3 4 3 4 4 5 5 5 5 5 5 6 6 7 7 7 7 7 8
14 15 15 16 17 17 15 13 13 13 12 12 12 10 9 9 9 8 7 5 4 3 2 2 2 2 2 2 2 2 2 2 2 2 2 3 4 5 6 5 5 6
12 13 14 16 18 17 16 14 14 14 13 12 12 11 10 9 9 8 6 5 4 3 2 0 0 1 1 2 2 2 2 2 2 2 2 1 0 2 3 4 4 4
10 12 14 16 17 17 16 14 14 14 13 13 12 11 10 9 8 7 6 4 4 3 2 2 2 2 3 3 3 4 5 5 5 4 4 4 4 3 3 3 4 4
10 11 13 16 17 17 15 13 13 14 14 14 13 12 11 9 8 7 7 6 5 4 4 3 3 4 4 4 5 6 7 7 6 6 6 6 7 6 6 6 7 7
11 11 13 15 17 16 15 13 12 13 14 14 13 12 11 9 9 9 9 8 7 5 4 5 6 6 6 7 7 8 8 8 8 8 8 9 9 9 9 9 10 11
13 13 14 15 16 16 16 15 13 12 12 11 11 10 10 10 10 11 10 8 7 6 6 7 7 8 8 8 10 10 9 9 9 8 8 9 10 11 11 12 12 12
15 16 16 16 16 16 16 15 13 11 10 9 9 9 10 10 10 10 8 7 7 7 6 7 7 8 8 9 9 10 9 9 8 8 8 8 9 10 12 13 12 12
14 15 15 15 14 14 13 12 11 10 9 8 8 9 9 9 8 7 6 6 6 7 7 8 8 8 8 9 9 10 9 9 9 10 10 9 8 9 11 12 13 14
10 11 12 12 13 12 11 10 10 10 9 8 7 8 8 8 8 6 6 6 7 7 7 8 8 8 7 8 9 9 8 8 8 10 9 8 8 9 11 12 13 14
9 10 11 13 13 13 12 11 10 10 9 8 9 9 9 9 8 7 7 7 6 5 5 4 4 4 4 5 4 4 4 5 5 6 7 7 8 9 11 12 12 12
10 11 12 13 13 12 12 11 9 9 10 10 11 11 10 10 9 8 6 5 4 3 3 3 3 2 2 1 1 1 1 2 3 3 4 5 6 7 8 9 10 10
11 12 12 13 12 11 11 11 10 10 10 10 11 10 10 9 8 6 4 3 3 2 2 1 1 2 2 2 2 3 2 3 3 2 2 3 4 5 6 7 8 10
11 12 12 13 13 13 13 13 12 11 11 10 10 10 10 9 8 8 8 8 8 7 7 6 4 3 3 3 3 2 2 3 2 2 3 4 5 6 7 7 8 9
11 12 12 12 12 13 13 13 14 13 13 12 12 11 11 11 11 11 10 10 9 8 8 8 7 5 4 4 3 2 2 2 1 1 3 5 7 8 8 9 9 8
11 12 12 12 12 12 13 14 15 15 14 13 12 11 11 10 10 10 10 9 9 8 8 8 7 6 5 4 3 2 2 2 1 1 3 5 6 7 7 7 7 6
9 11 11 11 11 12 13 14 14 13 12 11 10 9 9 9 9 9 8 8 8 8 8 7 6 5 5 4 3 3 2 1 1 1 2 4 5 7 7 6 5 5
8 8 9 9 10 11 12 12 11 10 10 9 9 9 9 8 8 8 8 7 7 7 7 6 4 3 3 3 3 2 2 1 0 1 2 4 5 6 6 6 6 6
9 8 8 8 8 9 9 8 8 8 8 8 7 7 7 7 7 7 7 6 6 5 5 4 2 1 1 1 2 2 1 1 1 2 4 5 5 5 5 5 6 6
6 5 5 4 5 5 5 4 6 7 7 7 6 6 6 6 6 6 5 4 4 4 4 3 2 1 1 1 1 1 2 3 3 4 5 4 4 4 5 6 6 7
4 5 6 6 7 6 6 6 7 7 7 7 7 6 6 5 5 4 3 2 2 2 1 1 0 0 0 0 0 1 2 4 5 6 5 4 3 4 6 7 8 8
Wind_Direction
187 193 195 190 183 177 173 168 167 166 160 161 165 163 155 145 134 125 115 106 101 94 86 81 79 80 82 84 89 94 95 91 89 87 88 92 95 96 95 94 94 93
195 203 206 200 190 182 177 171 168 167 166 169 173 171 165 156 146 138 128 119 110 99 91 84 81 80 81 84 88 93 95 91 87 85 87 93 97 100 102 102 102 98
206 211 212 207 199 188 179 172 168 166 168 175 182 182 176 167 158 150 139 131 123 109 99 92 88 85 82 83 85 89 93 92 89 87 86 90 96 100 105 107 105 101
217 215 213 209 203 192 181 174 171 169 172 179 185 187 186 180 171 160 147 139 132 120 111 104 100 93 86 82 82 85 90 92 91 90 89 92 98 102 106 109 109 105
224 216 212 209 203 193 184 180 176 174 176 183 187 187 189 188 179 168 155 139 128 121 113 110 109 102 90 81 77 77 81 87 92 95 95 97 103 109 112 114 113 111
223 215 211 209 204 195 187 184 181 178 178 184 188 188 190 190 184 175 164 149 135 118 105 104 107 104 91 78 72 69 68 71 78 90 101 103 107 115 119 121 122 119
219 212 209 209 206 197 189 185 184 183 182 186 190 190 190 191 188 182 172 162 152 135 116 102 95 91 75 57 53 53 50 43 37 55 95 104 108 120 129 133 133 131
215 211 210 210 207 200 192 188 188 188 187 189 193 194 194 193 192 187 179 173 170 167 163 151 8 4 2 350 339 335 333 322 316 307 287 286 242 146 155 161 161 159
217 216 215 212 209 203 195 191 193 194 194 195 198 200 200 200 201 200 196 199 206 212 221 238 272 292 304 315 326 329 322 313 306 291 282 282 276 258 239 226 213 206
215 218 219 215 212 207 199 197 200 201 202 205 207 212 213 211 215 218 218 219 220 225 236 251 274 287 291 299 317 327 326 319 308 294 288 284 276 267 266 268 261 247
211 215 219 216 213 209 205 208 210 206 208 212 216 220 222 224 229 231 229 229 231 241 265 283 288 289 282 278 286 301 314 315 305 297 292 286 281 276 269 267 265 258
212 215 216 215 213 211 208 211 212 210 212 216 217 219 223 226 229 231 235 242 248 258 279 288 288 286 280 276 277 284 297 305 305 302 294 283 280 279 270 260 254 253
214 216 216 214 214 211 207 206 206 209 211 212 214 218 222 225 226 228 234 241 250 266 281 286 286 286 284 283 283 285 290 296 299 301 298 287 278 276 273 266 257 252
211 213 214 211 207 202 198 197 198 199 200 203 213 220 222 221 219 217 218 231 254 275 282 283 284 284 286 288 289 290 292 289 285 285 288 291 286 280 279 275 269 262
199 197 197 195 190 184 180 180 184 186 190 197 207 213 214 210 208 213 229 250 267 275 276 277 277 278 283 289 287 285 288 287 282 280 281 289 292 287 284 282 279 271
182 178 178 178 175 170 167 170 178 185 192 202 208 209 211 212 219 233 246 254 258 261 266 269 268 272 284 292 289 284 286 290 291 290 288 290 292 290 289 288 288 283
182 178 179 180 179 177 178 184 198 206 207 209 210 208 211 217 225 232 233 235 241 253 267 260 252 266 279 297 15 47 359 352 338 318 302 291 290 290 289 290 290 290
193 193 191 189 186 182 182 184 190 198 201 199 196 197 201 203 201 191 171 149 124 106 92 105 171 212 213 171 114 106 88 60 42 14 336 307 298 295 292 294 295 294
179 182 184 184 183 182 180 174 169 173 180 178 175 176 173 162 147 131 119 110 100 92 84 82 93 130 159 151 128 115 107 90 62 25 349 325 316 313 312 313 310 307
168 170 172 172 172 172 170 166 162 161 161 156 152 149 142 132 124 117 111 104 94 86 80 77 82 97 116 128 131 129 129 122 92 14 331 318 318 322 322 320 318 314
154 153 150 147 145 146 146 147 148 147 146 144 140 137 131 124 119 113 106 97 87 79 75 71 70 75 84 98 111 126 147 162 185 283 312 321 333 344 344 337 330 324
136 140 139 138 139 141 142 142 143 143 143 144 141 133 126 121 115 108 100 93 85 76 70 63 55 55 64 79 98 119 152 183 233 309 337 354 7 12 12 14 21 27
96 119 133 142 150 154 152 149 149 149 146 144 140 132 124 118 113 108 102 95 86 73 63 55 47 40 49 73 97 115 146 188 256 14 42 41 38 33 32 38 53 60
90 94 104 116 133 144 146 147 147 145 141 137 132 126 120 113 108 105 98 85 70 56 45 41 39 26 26 64 97 118 153 173 147 102 84 66 52 49 53 62 73 82
135 133 127 125 133 136 138 149 152 148 145 140 133 128 122 114 107 98 83 66 49 32 25 25 18 345 342 36 83 119 165 156 136 117 98 82 79 89 100 110 114 119
202 213 225 227 217 212 213 204 186 173 162 153 146 142 132 120 112 97 69 48 30 16 36 69 87 316 302 287 105 168 179 160 145 134 115 100 120 136 135 138 140 142